| time (UTC) | temp C | wind direction | speed KPH | gust KPH | rain 1hr cm | rain 24hr cm | rain mn cm | humidity % | barometer mb |
| 20260507100010 | 13 | 36 | 0.0 | 1.6 | 0.00 | 0.00 | 0.00 | 24 | 1013.2 |
| 20260507094511 | 13 | 53 | 0.0 | 4.8 | 0.00 | 0.00 | 0.00 | 25 | 1013.2 |
| 20260507093008 | 12 | 254 | 0.0 | 4.8 | 0.00 | 0.00 | 0.00 | 26 | 1013.2 |
| 20260507091507 | 12 | 248 | 0.0 | 3.2 | 0.00 | 0.00 | 0.00 | 26 | 1013.2 |
| 20260507090007 | 12 | 255 | 1.6 | 11.3 | 0.00 | 0.00 | 0.00 | 26 | 1013.4 |
| 20260507084506 | 12 | 171 | 0.0 | 4.8 | 0.00 | 0.00 | 0.00 | 25 | 1013.4 |
| 20260507083006 | 12 | 243 | 0.0 | 4.8 | 0.00 | 0.00 | 0.00 | 27 | 1013.4 |
| 20260507081503 | 12 | 199 | 0.0 | 4.8 | 0.00 | 0.00 | 0.00 | 27 | 1013.4 |
| 20260507080001 | 12 | 186 | 0.0 | 6.4 | 0.00 | 0.00 | 0.00 | 27 | 1013.5 |
| 20260507074558 | 11 | 346 | 0.0 | 0.0 | 0.00 | 0.00 | 0.00 | 28 | 1013.5 |
| 20260507073055 | 11 | 346 | 0.0 | 0.0 | 0.00 | 0.00 | 0.00 | 29 | 1013.5 |
| 20260507071609 | 11 | 346 | 0.0 | 0.0 | 0.00 | 0.00 | 0.00 | 29 | 1013.6 |
| 20260507070053 | 11 | 346 | 0.0 | 1.6 | 0.00 | 0.00 | 0.00 | 30 | 1013.5 |
| 20260507064549 | 10 | 346 | 0.0 | 0.0 | 0.00 | 0.00 | 0.00 | 34 | 1013.5 |
| 20260507063047 | 10 | 346 | 0.0 | 0.0 | 0.00 | 0.00 | 0.00 | 35 | 1013.6 |
| 20260507061542 | 9 | 346 | 0.0 | 1.6 | 0.00 | 0.00 | 0.00 | 37 | 1013.6 |
| 20260507060039 | 8 | 346 | 0.0 | 0.0 | 0.00 | 0.00 | 0.00 | 42 | 1013.6 |
| 20260507054533 | 6 | 346 | 0.0 | 0.0 | 0.00 | 0.00 | 0.00 | 46 | 1013.5 |
| 20260507053044 | 5 | 346 | 0.0 | 0.0 | 0.00 | 0.00 | 0.00 | 51 | 1013.5 |
| 20260507051531 | 3 | 346 | 0.0 | 0.0 | 0.00 | 0.00 | 0.00 | 59 | 1013.4 |
| 20260507050022 | 1 | 346 | 0.0 | 0.0 | 0.00 | 0.00 | 0.00 | 67 | 1013.4 |
| 20260507044506 | 0 | 346 | 0.0 | 0.0 | 0.00 | 0.00 | 0.00 | 72 | 1013.5 |
| 20260507043007 | -1 | 346 | 0.0 | 0.0 | 0.00 | 0.00 | 0.00 | 75 | 1013.5 |
| 20260507041559 | -2 | 346 | 0.0 | 0.0 | 0.00 | 0.00 | 0.00 | 81 | 1013.6 |
| 20260507040107 | -3 | 346 | 0.0 | 0.0 | 0.00 | 0.00 | 0.00 | 83 | 1013.5 |
| 20260507034557 | -3 | 346 | 0.0 | 0.0 | 0.00 | 0.00 | 0.00 | 83 | 1013.5 |
| 20260507033057 | -5 | 346 | 0.0 | 0.0 | 0.00 | 0.00 | 0.00 | 84 | 1013.4 |
| 20260507031557 | -5 | 346 | 0.0 | 0.0 | 0.00 | 0.00 | 0.00 | 85 | 1013.4 |
| 20260507030057 | -5 | 346 | 0.0 | 0.0 | 0.00 | 0.00 | 0.00 | 85 | 1013.3 |
| 20260507024602 | -6 | 346 | 0.0 | 0.0 | 0.00 | 0.00 | 0.00 | 84 | 1013.3 |
| 20260507023054 | -5 | 346 | 0.0 | 0.0 | 0.00 | 0.00 | 0.00 | 84 | 1013.3 |
| 20260507021553 | -5 | 346 | 0.0 | 0.0 | 0.00 | 0.00 | 0.00 | 83 | 1013.3 |
| 20260507020052 | -5 | 346 | 0.0 | 0.0 | 0.00 | 0.00 | 0.00 | 84 | 1013.3 |
| 20260507014601 | -5 | 346 | 0.0 | 0.0 | 0.00 | 0.00 | 0.00 | 82 | 1013.2 |
| 20260507013051 | -5 | 346 | 0.0 | 0.0 | 0.00 | 0.00 | 0.00 | 82 | 1013.1 |
| 20260507011548 | -5 | 346 | 0.0 | 0.0 | 0.00 | 0.00 | 0.00 | 83 | 1013.1 |
| 20260507010049 | -5 | 346 | 0.0 | 0.0 | 0.00 | 0.00 | 0.00 | 82 | 1012.9 |
| 20260507004547 | -5 | 346 | 0.0 | 0.0 | 0.00 | 0.00 | 0.00 | 81 | 1012.8 |
| 20260507003042 | -5 | 346 | 0.0 | 0.0 | 0.00 | 0.00 | 0.00 | 80 | 1012.8 |
| 20260507001548 | -5 | 346 | 0.0 | 0.0 | 0.00 | 0.00 | 0.00 | 80 | 1012.8 |
| 20260507000039 | -5 | 346 | 0.0 | 0.0 | 0.00 | 0.00 | 0.00 | 79 | 1012.6 |
| 20260506234538 | -4 | 346 | 0.0 | 0.0 | 0.00 | 0.00 | 0.00 | 79 | 1012.6 |
| 20260506233036 | -4 | 346 | 0.0 | 0.0 | 0.00 | 0.00 | 0.00 | 78 | 1012.6 |
| 20260506231532 | -3 | 346 | 0.0 | 0.0 | 0.00 | 0.00 | 0.00 | 76 | 1012.5 |
| 20260506230031 | -3 | 346 | 0.0 | 0.0 | 0.00 | 0.00 | 0.00 | 75 | 1012.5 |
| 20260506224532 | -3 | 346 | 0.0 | 0.0 | 0.00 | 0.00 | 0.00 | 75 | 1012.5 |
| 20260506223029 | -3 | 346 | 0.0 | 0.0 | 0.00 | 0.00 | 0.00 | 73 | 1012.5 |
| 20260506221524 | -2 | 346 | 0.0 | 0.0 | 0.00 | 0.00 | 0.00 | 72 | 1012.3 |
| 20260506220033 | -2 | 346 | 0.0 | 0.0 | 0.00 | 0.00 | 0.00 | 70 | 1012.3 |
| 20260506214521 | -2 | 346 | 0.0 | 0.0 | 0.00 | 0.00 | 0.00 | 69 | 1012.2 |
| 20260506213018 | -2 | 346 | 0.0 | 0.0 | 0.00 | 0.00 | 0.00 | 70 | 1012.1 |
| 20260506211516 | -1 | 346 | 0.0 | 0.0 | 0.00 | 0.00 | 0.00 | 69 | 1012.1 |
| 20260506210015 | -1 | 346 | 0.0 | 0.0 | 0.00 | 0.00 | 0.00 | 68 | 1012.0 |
| 20260506204513 | -1 | 346 | 0.0 | 0.0 | 0.00 | 0.00 | 0.00 | 66 | 1012.0 |
| 20260506203019 | 0 | 346 | 0.0 | 0.0 | 0.00 | 0.00 | 0.00 | 65 | 1012.0 |
| 20260506201511 | 0 | 346 | 0.0 | 0.0 | 0.00 | 0.00 | 0.00 | 62 | 1012.1 |
| 20260506200012 | 0 | 346 | 0.0 | 0.0 | 0.00 | 0.00 | 0.00 | 58 | 1012.1 |
| 20260506194511 | 1 | 346 | 0.0 | 1.6 | 0.00 | 0.00 | 0.00 | 56 | 1012.1 |
| 20260506193009 | 2 | 347 | 0.0 | 0.0 | 0.00 | 0.00 | 0.00 | 57 | 1012.1 |
| 20260506191509 | 3 | 347 | 0.0 | 0.0 | 0.00 | 0.00 | 0.00 | 51 | 1012.1 |
| 20260506190007 | 4 | 347 | 0.0 | 0.0 | 0.00 | 0.00 | 0.00 | 47 | 1011.9 |
| 20260506184506 | 5 | 346 | 0.0 | 0.0 | 0.00 | 0.00 | 0.00 | 42 | 1011.8 |
| 20260506183006 | 7 | 346 | 0.0 | 0.0 | 0.00 | 0.00 | 0.00 | 36 | 1011.7 |
| 20260506181504 | 8 | 346 | 0.0 | 0.0 | 0.00 | 0.00 | 0.00 | 33 | 1011.7 |
| 20260506180008 | 8 | 346 | 0.0 | 1.6 | 0.00 | 0.00 | 0.00 | 32 | 1011.6 |
| 20260506174503 | 9 | 350 | 0.0 | 1.6 | 0.00 | 0.00 | 0.00 | 31 | 1011.5 |
| 20260506173003 | 9 | 350 | 0.0 | 0.0 | 0.00 | 0.00 | 0.00 | 30 | 1011.5 |
| 20260506171501 | 10 | 355 | 0.0 | 0.0 | 0.00 | 0.00 | 0.00 | 29 | 1011.4 |
| 20260506170000 | 10 | 355 | 0.0 | 1.6 | 0.00 | 0.00 | 0.00 | 27 | 1011.4 |
| 20260506164600 | 10 | 355 | 0.0 | 0.0 | 0.00 | 0.00 | 0.00 | 27 | 1011.3 |
| 20260506163105 | 11 | 355 | 0.0 | 1.6 | 0.00 | 0.00 | 0.00 | 26 | 1011.3 |
| 20260506161600 | 11 | 355 | 0.0 | 1.6 | 0.00 | 0.00 | 0.00 | 26 | 1011.1 |
| 20260506154558 | 11 | 325 | 0.0 | 6.4 | 0.00 | 0.00 | 0.00 | 25 | 1011.2 |
| 20260506153058 | 11 | 267 | 0.0 | 11.3 | 0.00 | 0.00 | 0.00 | 27 | 1011.2 |
| 20260506151556 | 11 | 301 | 0.0 | 3.2 | 0.00 | 0.00 | 0.00 | 24 | 1011.2 |
| 20260506150059 | 11 | 344 | 0.0 | 1.6 | 0.00 | 0.00 | 0.00 | 25 | 1011.1 |
| 20260506144606 | 11 | 344 | 0.0 | 0.0 | 0.00 | 0.00 | 0.00 | 25 | 1011.3 |
| 20260506143056 | 11 | 344 | 0.0 | 1.6 | 0.00 | 0.00 | 0.00 | 27 | 1011.3 |
| 20260506141555 | 11 | 344 | 0.0 | 8.0 | 0.00 | 0.00 | 0.00 | 26 | 1011.2 |
| 20260506140055 | 11 | 331 | 1.6 | 9.7 | 0.00 | 0.00 | 0.00 | 25 | 1011.3 |
| 20260506134558 | 11 | 22 | 0.0 | 4.8 | 0.00 | 0.00 | 0.00 | 23 | 1011.3 |
| 20260506133058 | 12 | 321 | 3.2 | 9.7 | 0.00 | 0.00 | 0.00 | 25 | 1011.4 |
| 20260506131551 | 11 | 309 | 0.0 | 9.7 | 0.00 | 0.00 | 0.00 | 26 | 1011.3 |
| 20260506130052 | 11 | 22 | 0.0 | 6.4 | 0.00 | 0.00 | 0.00 | 26 | 1011.2 |
| 20260506124550 | 11 | 279 | 3.2 | 14.5 | 0.00 | 0.00 | 0.00 | 26 | 1011.2 |
| 20260506123050 | 11 | 281 | 1.6 | 8.0 | 0.00 | 0.00 | 0.00 | 26 | 1011.3 |
| 20260506121547 | 11 | 29 | 0.0 | 11.3 | 0.00 | 0.00 | 0.00 | 28 | 1011.3 |
| 20260506120047 | 11 | 273 | 1.6 | 9.7 | 0.00 | 0.00 | 0.00 | 27 | 1011.2 |
| 20260506114547 | 11 | 272 | 3.2 | 17.7 | 0.00 | 0.00 | 0.00 | 29 | 1011.2 |
| 20260506113046 | 11 | 315 | 4.8 | 12.9 | 0.00 | 0.00 | 0.00 | 28 | 1011.3 |
| 20260506111544 | 10 | 298 | 4.8 | 17.7 | 0.00 | 0.00 | 0.00 | 27 | 1011.2 |
| 20260506110043 | 11 | 360 | 3.2 | 9.7 | 0.00 | 0.00 | 0.00 | 28 | 1011.1 |
| 20260506104546 | 11 | 274 | 0.0 | 9.7 | 0.00 | 0.00 | 0.00 | 30 | 1011.0 |
| 20260506103041 | 10 | 331 | 1.6 | 8.0 | 0.00 | 0.00 | 0.00 | 30 | 1011.0 |
| 20260506101538 | 11 | 326 | 1.6 | 9.7 | 0.00 | 0.00 | 0.00 | 27 | 1011.0 |